Temperature
21 20 20 20 20 21 21 21 21 21 21 21 20 20 20 20 20 20 20 19 19 19 19 19 19 19 19 19 19 19 19 19 18 18 18 18 18 18 18 18 17 17 18
21 20 20 20 20 21 21 21 20 20 20 20 20 20 20 20 20 20 19 19 19 19 19 19 19 19 19 19 19 19 18 18 18 18 18 17 17 17 17 17 17 17 17
21 20 20 20 20 20 20 20 20 20 20 20 20 20 20 19 19 19 19 19 19 19 19 19 19 19 19 19 18 18 18 18 17 17 17 17 17 17 17 17 17 17 17
20 20 19 20 20 20 20 20 20 20 20 20 20 20 19 19 19 19 19 19 19 19 19 19 19 19 18 18 18 18 18 18 17 17 17 17 16 17 17 17 17 17 17
20 20 20 20 20 20 20 20 20 20 20 20 20 19 19 19 19 19 19 19 19 19 19 19 19 18 18 18 18 18 18 17 17 17 17 16 17 17 17 17 17 17 16
20 19 20 20 20 20 20 20 20 20 20 19 19 19 19 19 18 18 18 18 18 18 18 18 18 18 18 18 18 17 17 17 17 17 16 16 17 17 17 16 16 16 16
20 19 20 20 20 20 20 20 20 20 19 19 19 19 18 18 18 18 18 18 18 18 18 18 18 18 18 17 17 17 17 17 17 17 16 16 16 17 17 16 16 16 16
20 19 19 20 19 19 20 20 20 19 19 19 19 18 18 18 18 18 18 18 18 18 18 18 18 18 18 17 17 17 17 17 17 17 17 17 17 17 16 16 16 16 16
20 19 19 19 19 19 19 19 19 19 19 19 18 18 18 18 18 18 18 18 18 18 18 18 18 18 17 17 17 17 17 17 17 17 17 16 17 17 17 16 16 16 16
20 19 18 18 18 18 19 19 19 19 19 18 18 18 18 18 18 18 18 18 18 18 18 17 17 17 17 17 17 17 17 17 17 17 17 16 17 17 17 17 17 17 17
19 19 18 18 18 18 18 18 18 18 18 18 18 18 18 17 17 18 17 18 18 18 17 17 17 18 17 17 17 17 17 17 18 17 17 17 17 17 17 17 17 17 17
19 19 19 19 18 18 18 18 18 18 18 18 17 18 17 17 17 17 17 18 18 18 18 17 17 17 17 17 17 17 17 17 18 17 17 17 17 17 17 17 17 17 17
19 19 19 19 18 18 18 18 18 18 18 18 17 17 17 17 17 17 17 17 17 17 17 17 17 17 17 17 17 17 17 17 17 17 17 17 17 17 17 17 17 17 17
20 19 19 19 18 18 18 18 18 18 18 18 18 18 17 17 17 17 17 17 16 16 16 17 17 17 17 17 17 17 17 17 17 17 17 17 17 17 17 17 17 16 16
20 19 19 19 18 18 18 18 18 18 18 18 18 18 17 17 17 17 17 17 17 17 17 16 17 16 16 17 17 17 17 17 17 17 17 17 17 17 17 16 16 16 16
20 19 19 18 18 18 18 18 18 18 18 18 18 18 18 17 17 17 17 17 17 17 17 17 17 16 16 17 17 17 17 17 17 16 16 16 16 16 16 16 16 16 15
20 19 19 18 18 18 18 18 18 18 18 18 18 18 18 17 17 17 17 17 17 17 17 17 16 16 16 16 17 17 16 16 16 16 16 16 16 16 16 15 15 15 15
20 19 19 19 18 19 19 18 18 18 18 18 18 18 18 18 17 17 17 17 17 17 17 17 16 16 16 16 16 16 16 16 16 16 16 15 15 15 15 15 14 14 14
20 20 19 19 19 19 19 18 18 18 18 18 18 18 18 18 18 17 17 17 17 17 17 16 16 16 16 16 16 16 16 16 16 15 15 15 15 14 14 14 14 14 13
20 20 20 20 19 19 18 18 18 18 18 18 18 18 18 18 18 17 17 17 17 16 16 16 16 16 16 16 16 15 15 15 15 15 15 14 14 14 14 14 13 13 13
19 20 20 20 19 19 18 18 18 18 18 18 18 18 18 18 17 17 17 17 17 16 16 16 16 16 15 15 15 15 14 15 14 14 14 14 14 14 14 13 13 13 12
19 19 20 20 20 20 19 19 18 18 18 18 18 18 18 18 17 17 17 17 17 16 16 16 16 15 15 15 15 14 14 13 14 14 13 13 13 13 13 12 12 12 12
19 19 19 19 20 20 19 19 18 18 18 17 18 17 18 18 17 17 17 16 16 16 16 16 15 15 15 15 14 14 14 14 13 13 13 13 13 12 12 12 12 11 11
18 18 18 19 19 19 19 18 18 18 18 18 17 17 17 17 17 17 16 16 16 16 15 15 15 14 14 14 14 14 13 13 13 12 12 12 12 11 11 11 11 10 10
17 17 18 18 18 18 19 18 18 18 17 17 17 17 17 16 16 16 15 15 15 15 14 14 14 14 13 13 13 13 13 13 12 12 12 11 11 10 10 10 10 10 9
16 17 17 18 18 18 18 18 18 17 16 16 16 16 16 15 15 15 15 14 14 14 14 13 13 13 13 12 12 12 12 12 11 11 11 11 10 10 10 9 9 9 8
Wind_Speed
16 20 19 14 15 18 22 24 24 24 24 23 22 21 19 18 17 16 16 15 15 14 15 15 15 14 14 14 14 14 13 13 13 14 14 14 14 14 14 13 12 15 15
19 22 20 16 16 19 23 24 25 24 24 23 22 21 19 18 17 16 15 15 14 14 14 14 14 14 14 13 13 13 12 12 12 12 13 13 13 12 11 7 8 15 14
21 23 21 16 18 21 23 24 25 24 24 23 22 21 19 18 17 16 15 14 13 13 13 13 13 13 12 12 11 11 11 11 10 10 10 11 13 11 10 10 14 14 13
22 23 22 18 18 21 23 24 24 24 23 23 22 21 19 18 16 15 14 13 13 12 12 12 12 12 11 10 10 10 10 9 9 8 7 10 11 12 11 11 12 12 11
21 22 22 19 19 20 22 23 23 23 23 22 21 20 18 17 15 14 13 13 12 12 12 11 10 10 9 9 8 8 9 8 7 7 7 9 10 12 10 11 11 10 10
21 22 23 19 19 20 21 22 22 22 21 21 20 19 18 16 15 13 12 12 12 11 11 10 9 8 8 7 6 7 7 8 9 5 7 7 10 11 10 10 10 9 9
20 21 24 19 19 20 20 20 21 20 20 20 19 18 17 15 14 12 12 11 11 11 10 9 8 7 6 5 5 5 6 7 6 5 6 7 11 11 9 9 9 9 9
19 20 23 20 20 20 20 19 19 19 19 19 18 17 16 14 13 11 11 10 10 10 9 8 7 6 5 4 3 3 5 7 6 5 5 8 13 9 8 8 9 9 9
19 19 21 22 20 19 18 19 19 19 18 18 17 17 15 14 12 10 10 9 9 9 8 7 6 5 4 4 3 3 3 5 5 5 5 8 12 8 8 9 9 9 8
18 18 19 21 21 20 19 18 18 18 18 17 17 16 15 13 11 9 10 9 8 8 7 7 6 4 4 3 3 3 4 7 6 7 6 10 11 9 9 9 9 8 8
17 17 18 19 19 20 20 19 18 17 16 17 15 15 14 13 12 11 8 9 7 6 6 6 5 4 4 6 4 4 6 8 6 5 5 12 10 9 9 9 9 8 8
19 19 18 18 18 19 17 18 17 17 16 16 14 15 13 9 8 7 11 7 6 5 6 6 5 6 8 7 9 9 8 6 6 6 8 12 10 10 9 9 9 9 8
20 19 19 18 18 17 14 16 14 14 14 14 13 14 10 9 9 8 9 10 9 9 9 8 9 7 6 4 5 7 5 6 6 6 9 12 10 10 10 10 9 9 8
20 20 19 18 16 16 15 13 13 12 12 12 13 13 11 8 8 8 7 7 8 7 5 6 5 5 5 6 7 6 7 7 6 6 10 12 11 10 10 10 9 8 8
20 20 19 18 16 14 12 11 12 11 12 12 12 13 11 9 8 8 7 6 7 6 6 6 6 4 5 7 7 7 7 7 6 6 9 12 11 10 10 10 9 8 8
19 19 18 17 16 15 12 11 10 12 11 12 12 13 13 10 8 7 7 7 7 6 6 6 5 5 6 5 5 6 7 7 7 7 8 12 11 10 10 10 9 8 7
18 18 17 17 16 15 15 13 11 11 12 11 11 12 13 12 9 8 7 7 7 7 6 6 5 5 5 5 5 5 5 5 5 6 5 7 10 11 9 8 8 7 7
17 17 17 15 17 16 14 13 11 12 12 11 11 11 13 13 11 10 8 7 7 7 7 5 6 6 6 5 5 4 3 3 4 4 4 4 4 7 9 8 7 6 6
16 17 17 17 17 16 15 12 12 11 11 11 11 11 12 13 13 11 8 7 7 7 6 6 6 6 5 5 4 3 3 3 3 4 4 4 5 5 7 9 7 6 4
15 15 16 16 16 15 13 12 11 11 10 11 10 11 11 11 12 11 8 7 7 6 6 5 5 4 4 4 4 4 3 3 3 4 4 5 5 6 6 7 7 7 6
13 14 15 16 16 14 12 12 12 12 10 10 9 10 11 10 11 10 7 6 6 6 6 6 5 5 5 5 5 5 4 4 4 3 3 3 5 5 5 5 5 4 5
12 13 14 15 15 16 13 12 10 10 9 8 7 8 9 9 9 8 8 7 6 6 7 7 6 5 4 5 5 5 5 4 3 2 2 3 3 4 4 4 4 3 2
8 10 10 12 13 15 13 10 8 7 7 7 8 7 7 7 6 6 8 7 7 7 7 8 9 8 6 6 4 4 5 6 5 4 3 3 3 3 3 4 4 4 3
4 5 7 8 10 11 12 11 12 11 10 8 6 5 5 4 4 4 6 6 6 5 6 7 7 6 7 6 4 1 1 1 3 4 4 3 3 3 3 4 5 5 3
1 1 3 5 6 8 10 12 12 10 8 5 5 6 6 5 5 4 4 4 4 3 4 4 5 5 4 4 4 3 2 1 0 2 4 4 4 3 3 3 3 3 2
6 4 3 3 2 3 6 8 9 9 7 7 8 7 6 5 5 5 6 5 5 4 5 5 4 4 4 3 2 2 2 2 2 2 3 4 4 4 4 3 3 3 3
Wind_Direction
161 153 143 152 152 152 152 151 149 148 147 145 143 141 137 134 130 127 125 122 120 118 116 114 114 113 112 112 111 110 110 111 111 112 112 112 113 115 118 127 135 113 116
153 150 144 148 150 150 151 150 149 148 146 145 143 141 138 135 133 130 128 126 124 122 119 117 116 116 115 115 115 115 115 118 119 119 123 119 114 114 118 116 86 112 121
149 149 151 146 148 149 149 148 147 147 146 145 144 141 139 136 134 133 131 129 127 124 122 120 119 119 119 119 118 117 117 119 124 135 156 133 120 117 112 100 99 116 122
148 151 156 146 147 148 148 147 146 147 146 145 143 141 139 137 136 135 134 131 128 125 123 122 122 123 123 123 122 120 120 120 130 177 166 122 126 120 119 115 116 120 121
150 153 149 150 148 147 147 146 147 146 145 144 143 141 139 138 138 137 136 132 128 125 123 124 126 127 128 130 130 129 129 131 159 217 114 115 117 123 126 123 122 120 118
153 153 150 154 150 147 147 147 147 146 145 144 143 141 139 139 140 139 136 132 128 124 123 124 126 127 129 133 139 144 145 156 201 143 115 126 124 130 133 129 125 120 116
154 154 153 156 152 150 149 149 148 147 146 144 143 141 140 141 141 139 136 132 128 124 123 123 124 124 125 127 136 150 166 195 236 123 132 131 117 132 138 133 127 121 115
155 154 153 157 156 155 154 152 150 149 147 145 143 142 141 141 141 140 136 131 127 125 125 124 123 119 114 111 122 143 173 223 209 143 150 118 117 137 138 133 127 122 119
159 156 158 164 164 162 158 156 154 152 150 148 146 144 144 145 145 142 137 133 129 128 128 128 127 121 111 103 110 134 161 235 226 157 152 121 128 142 138 133 129 127 127
164 161 163 168 168 170 169 165 160 157 155 153 151 150 149 149 151 152 156 139 137 135 134 134 134 129 126 115 116 144 174 222 211 166 155 127 137 148 145 142 140 138 136
169 168 170 171 172 175 173 168 169 166 161 159 160 157 163 173 169 175 157 141 149 146 144 144 145 148 172 165 159 174 204 220 182 166 139 122 148 157 154 151 151 150 148
176 176 176 177 175 179 173 169 178 179 174 181 174 173 187 177 181 179 134 160 167 164 164 159 165 189 219 192 174 193 211 210 183 173 138 133 159 164 162 161 161 161 160
179 182 181 181 181 181 176 176 182 185 179 190 182 183 186 178 184 188 176 179 188 193 197 170 199 209 213 213 213 206 207 205 196 183 147 149 167 171 168 168 169 169 167
182 186 185 182 184 188 183 182 184 187 183 189 184 190 185 192 194 195 201 198 195 201 205 217 222 211 224 218 225 218 204 213 201 193 144 156 172 176 174 172 172 172 171
186 187 189 188 186 191 190 191 192 194 190 190 186 194 197 197 200 196 203 211 220 211 205 222 231 219 227 221 225 218 217 212 207 199 157 163 176 180 178 175 175 175 173
187 189 189 192 189 192 195 199 198 200 198 198 195 196 201 208 203 204 207 208 220 223 232 230 228 225 229 227 221 214 220 210 202 202 180 164 174 178 177 174 175 174 169
189 190 191 194 194 196 200 203 203 206 202 207 202 200 203 212 206 210 218 212 217 219 218 229 224 229 223 211 208 203 211 212 193 196 192 174 171 170 168 164 161 162 160
189 190 194 197 198 200 206 208 210 211 208 211 209 206 207 214 211 214 222 220 212 216 215 215 224 221 218 215 199 189 184 179 175 170 171 149 146 153 148 140 142 149 158
190 190 195 202 202 203 206 209 216 214 214 216 215 215 211 214 214 218 225 222 213 216 218 222 216 224 216 207 181 158 156 153 145 146 137 127 120 122 131 129 128 125 131
191 193 198 202 206 206 206 210 217 218 215 218 219 219 216 214 215 219 222 214 215 216 214 215 213 217 215 189 177 139 128 125 125 124 140 136 136 141 144 144 154 138 121
191 194 201 205 203 204 207 210 211 215 216 216 217 215 213 214 214 214 215 204 209 218 214 198 195 191 193 175 174 164 140 123 112 119 135 154 150 147 152 157 171 173 161
194 198 200 203 202 203 207 209 213 217 218 215 210 203 204 208 211 211 209 209 206 212 209 196 191 192 188 195 210 199 194 183 159 118 142 151 157 164 164 159 150 149 178
197 204 206 205 204 204 203 201 204 208 214 209 204 199 195 193 198 205 213 214 213 208 204 200 196 198 192 193 219 219 219 217 170 154 139 148 164 167 160 145 147 140 151
201 209 209 206 205 202 199 202 201 207 212 211 201 186 166 157 168 183 204 206 210 206 198 197 198 205 202 191 183 233 338 20 180 169 172 155 149 165 160 167 150 134 140
56 179 191 191 200 201 201 204 207 217 220 197 173 158 140 130 128 140 159 163 165 168 165 164 177 189 196 191 174 167 145 84 239 207 187 179 177 175 169 175 164 159 156
45 55 79 109 125 184 198 207 211 218 207 174 169 158 140 119 103 99 101 105 108 114 120 121 128 124 113 109 115 145 157 165 189 204 203 198 198 187 189 201 210 212 229
Height
1528 1531 1533 1537 1540 1544 1547 1550 1553 1556 1558 1560 1562 1564 1566 1567 1569 1570 1571 1572 1573 1574 1575 1575 1576 1576 1576 1577 1577 1577 1577 1578 1578 1578 1579 1579 1580 1581 1581 1582 1584 1584 1584
1527 1530 1533 1537 1541 1544 1548 1551 1554 1557 1560 1562 1564 1566 1567 1569 1570 1572 1573 1574 1575 1576 1576 1577 1577 1578 1578 1578 1578 1579 1579 1580 1580 1581 1581 1582 1582 1583 1584 1585 1586 1586 1586
1527 1530 1533 1538 1542 1545 1549 1552 1556 1558 1561 1563 1565 1567 1569 1570 1572 1573 1574 1575 1576 1577 1577 1578 1579 1579 1580 1580 1580 1581 1581 1582 1582 1583 1584 1586 1585 1585 1586 1586 1587 1588 1589
1528 1531 1535 1539 1543 1547 1550 1554 1557 1560 1562 1564 1566 1568 1570 1572 1573 1575 1576 1577 1578 1578 1579 1579 1580 1581 1581 1582 1582 1582 1583 1584 1584 1585 1588 1588 1588 1587 1587 1588 1589 1590 1591
1529 1533 1535 1540 1544 1548 1552 1555 1558 1561 1563 1566 1568 1570 1571 1573 1574 1576 1577 1578 1578 1579 1580 1580 1581 1582 1583 1583 1584 1584 1585 1586 1586 1588 1590 1589 1589 1588 1589 1590 1591 1592 1593
1531 1534 1537 1541 1546 1549 1553 1556 1559 1562 1564 1567 1569 1571 1573 1574 1575 1577 1578 1578 1579 1580 1580 1581 1582 1583 1584 1585 1585 1586 1587 1587 1588 1591 1591 1591 1591 1590 1591 1591 1592 1593 1594
1533 1536 1538 1543 1547 1551 1554 1557 1560 1563 1565 1568 1570 1572 1574 1575 1576 1577 1578 1579 1579 1580 1581 1582 1583 1584 1585 1585 1586 1587 1588 1589 1590 1592 1592 1592 1592 1591 1592 1593 1593 1594 1595
1535 1538 1539 1544 1548 1552 1555 1558 1561 1564 1566 1568 1571 1573 1574 1576 1577 1578 1579 1579 1580 1580 1581 1582 1583 1584 1585 1586 1587 1588 1588 1589 1591 1593 1593 1593 1592 1592 1593 1594 1595 1595 1596
1537 1540 1541 1545 1549 1552 1556 1559 1562 1564 1567 1569 1571 1573 1575 1576 1577 1578 1579 1580 1580 1581 1581 1582 1583 1584 1585 1586 1587 1588 1589 1590 1592 1593 1594 1594 1593 1593 1594 1595 1596 1596 1597
1537 1541 1543 1546 1550 1553 1556 1559 1562 1565 1567 1569 1571 1573 1575 1576 1577 1578 1579 1579 1580 1581 1581 1582 1583 1584 1585 1586 1587 1588 1589 1590 1593 1594 1594 1593 1593 1593 1594 1595 1596 1597 1598
1537 1541 1544 1547 1550 1554 1557 1559 1562 1565 1567 1569 1571 1573 1575 1577 1578 1578 1579 1579 1580 1580 1581 1582 1583 1584 1585 1586 1587 1588 1589 1591 1593 1593 1594 1593 1593 1594 1594 1595 1596 1597 1598
1536 1540 1543 1547 1550 1554 1557 1559 1562 1565 1567 1569 1571 1573 1575 1577 1578 1579 1578 1579 1579 1580 1581 1582 1582 1584 1585 1587 1587 1588 1590 1591 1593 1593 1593 1592 1593 1594 1595 1596 1597 1597 1598
1534 1538 1543 1546 1550 1553 1556 1558 1562 1565 1566 1568 1571 1572 1574 1576 1577 1578 1578 1578 1579 1580 1582 1582 1583 1585 1586 1587 1588 1589 1590 1591 1592 1593 1592 1592 1593 1594 1595 1596 1597 1597 1598
1533 1537 1541 1545 1548 1552 1555 1558 1560 1563 1565 1567 1569 1570 1573 1574 1576 1577 1578 1580 1580 1581 1581 1582 1583 1584 1584 1585 1586 1588 1588 1589 1591 1592 1591 1591 1593 1594 1594 1595 1596 1597 1598
1532 1536 1540 1543 1546 1550 1553 1556 1559 1561 1564 1565 1567 1569 1571 1573 1574 1576 1577 1577 1579 1580 1580 1581 1582 1582 1583 1584 1585 1586 1587 1588 1589 1590 1590 1590 1591 1593 1594 1594 1595 1596 1596
1529 1534 1538 1541 1544 1547 1550 1553 1557 1560 1562 1565 1566 1567 1569 1571 1573 1574 1575 1575 1577 1577 1579 1579 1580 1580 1581 1582 1583 1584 1585 1586 1587 1588 1589 1589 1590 1591 1592 1593 1594 1594 1594
1527 1531 1535 1538 1542 1545 1548 1552 1555 1558 1560 1562 1564 1565 1566 1568 1570 1571 1573 1573 1574 1575 1575 1576 1577 1578 1579 1580 1580 1581 1582 1583 1584 1585 1586 1587 1588 1589 1590 1590 1591 1592 1592
1525 1529 1533 1537 1540 1543 1546 1550 1553 1556 1558 1559 1561 1562 1564 1566 1567 1568 1570 1571 1572 1573 1573 1574 1575 1576 1577 1578 1578 1578 1579 1580 1581 1582 1583 1584 1585 1586 1586 1587 1588 1589 1589
1523 1526 1530 1534 1537 1540 1544 1547 1550 1552 1554 1556 1558 1560 1561 1562 1563 1565 1566 1568 1569 1570 1570 1571 1572 1573 1574 1575 1575 1575 1576 1576 1577 1578 1580 1581 1582 1582 1583 1584 1584 1585 1585
1521 1524 1527 1531 1535 1538 1541 1544 1546 1549 1550 1552 1554 1555 1557 1558 1560 1561 1562 1563 1565 1566 1567 1568 1569 1569 1570 1571 1572 1572 1572 1573 1574 1575 1576 1577 1578 1579 1580 1580 1581 1581 1582
1518 1520 1524 1528 1531 1534 1537 1539 1542 1545 1547 1548 1550 1551 1553 1554 1555 1557 1558 1559 1560 1562 1563 1564 1564 1565 1566 1567 1569 1569 1569 1569 1570 1571 1572 1574 1575 1575 1576 1576 1577 1578 1578
1515 1518 1521 1524 1527 1530 1533 1535 1538 1541 1543 1544 1545 1546 1548 1550 1551 1553 1554 1555 1556 1557 1558 1559 1560 1561 1562 1563 1565 1566 1567 1568 1566 1567 1568 1570 1571 1572 1572 1572 1573 1573 1574
1513 1515 1518 1520 1523 1526 1529 1531 1534 1536 1538 1540 1541 1542 1543 1545 1547 1549 1550 1551 1551 1552 1553 1554 1555 1556 1557 1558 1560 1562 1562 1563 1563 1564 1564 1565 1566 1567 1568 1568 1568 1569 1569
1511 1512 1514 1516 1519 1521 1524 1527 1529 1531 1533 1534 1536 1537 1538 1539 1541 1542 1544 1545 1546 1547 1547 1548 1550 1551 1553 1554 1555 1556 1558 1559 1560 1560 1561 1561 1562 1563 1564 1564 1565 1564 1565
1509 1510 1512 1513 1515 1518 1520 1523 1525 1528 1530 1531 1532 1533 1533 1534 1536 1538 1538 1540 1541 1541 1542 1544 1545 1547 1549 1551 1552 1553 1554 1555 1556 1557 1558 1559 1559 1559 1559 1560 1561 1561 1560
1507 1508 1509 1510 1512 1514 1516 1519 1521 1524 1526 1526 1528 1529 1529 1530 1533 1534 1535 1536 1537 1538 1539 1541 1542 1544 1546 1547 1549 1550 1551 1552 1553 1554 1555 1555 1556 1556 1556 1557 1557 1557 1557